Weather History for Saranac Lake, NY

Change the Weather History Date:

Sunday, May 19, 2013

  Actual Average Record
Temperature  
Mean Temperature 50 °F 51 °F  
Max Temperature 67 °F 65 °F 90 °F (1962)
Min Temperature 32 °F 38 °F 24 °F (1991)
Degree Days  
Heating Degree Days 16    
Cooling Degree Days 0 0  
Month to date cooling degree days 0 0  
Year to date cooling degree days 0 0  
Moisture  
Dew Point 44 °F    
Average Humidity 69    
Maximum Humidity 93    
Minimum Humidity 44    
Precipitation  
Precipitation 0.13 in 0.12 in 1.20 in (1967)
Month to date precipitation 1.12 1.94  
Year to date precipitation 6.38 10.85  
Sea Level Pressure  
Sea Level Pressure 30.18 in    
Wind  
Wind Speed 5 mph (South)    
Max Wind Speed 15 mph    
Max Gust Speed 20 mph    
Visibility 10 miles    
Events Rain    
T = Trace of Precipitation, MM = Missing Value Source: NWS Daily Summary

Daily Weather History Graph

Daily Weather History Graph

Search for Another Location

Airport:

Trip Planner

Search our weather history database for the weather conditions in past years. The results will help you decide how hot, cold, wet, or windy it might be!

Date:

Astronomy

May. 19, 2013 Rise Set
Actual Time 5:25 AM EDT 8:22 PM EDT
Civil Twilight 4:51 AM EDT 8:56 PM EDT
Nautical Twilight 4:07 AM EDT 9:40 PM EDT
Astronomical Twilight 3:15 AM EDT 10:32 PM EDT
Moon 2:10 PM EDT (5/19) 2:01 AM EDT (5/19)
Length of Visible Light 16h 05m
Length of Day
14h 56m
Waxing Gibbous, 65% of the Moon is Illuminated
May 19
Waxing Gibbous
May 25
Full
May 31
Last Quarter
Jun 8
New
Jun 16
First Quarter

Hourly Weather History & Observations

Time (EDT) Temp. Dew Point Humidity Pressure Visibility Wind Dir Wind Speed Gust Speed Precip Events Conditions
12:51 AM 39.9 °F 33.1 °F 77% 30.23 in 10.0 mi Calm Calm - N/A   Clear
1:51 AM 37.9 °F 33.1 °F 83% 30.24 in 10.0 mi Calm Calm - N/A   Clear
2:51 AM 37.0 °F 32.0 °F 82% 30.24 in 10.0 mi Calm Calm - N/A   Clear
4:51 AM 33.1 °F 30.9 °F 92% 30.25 in 10.0 mi Calm Calm - N/A   Clear
5:51 AM 33.1 °F 30.9 °F 92% 30.25 in 10.0 mi Calm Calm - N/A   Clear
6:51 AM 39.0 °F 35.1 °F 86% 30.25 in 10.0 mi Calm Calm - N/A   Clear
7:51 AM 52.0 °F 42.1 °F 69% 30.25 in 10.0 mi SW 3.5 mph - N/A   Clear
8:51 AM 59.0 °F 44.1 °F 58% 30.24 in 10.0 mi South 3.5 mph - N/A   Clear
9:51 AM 62.1 °F 45.0 °F 53% 30.23 in 10.0 mi SSW 9.2 mph - N/A   Clear
10:51 AM 64.9 °F 42.1 °F 43% 30.22 in 10.0 mi SSE 12.7 mph 18.4 mph N/A   Clear
11:51 AM 64.9 °F 43.0 °F 45% 30.22 in 10.0 mi SSE 10.4 mph - N/A   Clear
12:51 PM 64.9 °F 44.1 °F 47% 30.20 in 10.0 mi South 9.2 mph - N/A   Overcast
1:51 PM 62.1 °F 46.0 °F 56% 30.20 in 10.0 mi SSE 11.5 mph 18.4 mph N/A   Mostly Cloudy
2:51 PM 60.1 °F 48.0 °F 64% 30.19 in 10.0 mi SE 9.2 mph 17.3 mph N/A   Overcast
3:51 PM 57.9 °F 50.0 °F 75% 30.19 in 10.0 mi South 11.5 mph - N/A   Overcast
4:17 PM 55.4 °F 51.8 °F 88% 30.16 in 6.0 mi South 5.8 mph - 0.00 in Rain Light Rain
5:51 PM 54.0 °F 52.0 °F 93% 30.16 in 8.0 mi SSE 3.5 mph - 0.06 in Rain Light Rain
6:51 PM 54.0 °F 52.0 °F 93% 30.14 in 10.0 mi SSW 3.5 mph - 0.03 in   Overcast
7:51 PM 54.0 °F 52.0 °F 93% 30.12 in 10.0 mi Calm Calm - N/A   Overcast
8:51 PM 53.1 °F 52.0 °F 96% 30.11 in 10.0 mi Calm Calm - N/A   Overcast
9:51 PM 54.0 °F 52.0 °F 93% 30.11 in 10.0 mi SW 3.5 mph - N/A   Overcast
10:47 PM 53.6 °F 51.8 °F 94% 30.08 in 10.0 mi SW 9.2 mph - N/A   Overcast
10:51 PM 54.0 °F 52.0 °F 93% 30.08 in 10.0 mi SW 9.2 mph - N/A   Overcast
11:51 PM 54.0 °F 52.0 °F 93% 30.06 in 10.0 mi SW 12.7 mph - 0.01 in   Overcast